RH
69 70 82 76 72 69 69 72 74 85 81 87 86 89 88 85 90 92 99 98 98 99 95 89 85 96 95 96 96 88 90 76 80 85 78 80 71 61 55 50 52 61 79 87 84 79 66 60 62 46 60 77 70 69
69 70 72 74 71 70 69 71 75 81 84 83 88 88 86 88 94 86 99 97 97 98 98 94 88 82 88 88 97 91 90 82 72 84 83 77 76 66 57 60 41 57 58 68 64 69 72 74 75 73 68 71 67 63
67 70 71 73 71 70 69 68 70 79 83 85 85 87 85 87 90 86 96 98 97 99 98 97 94 78 70 84 92 100 81 82 80 83 86 78 72 68 70 64 57 49 46 69 67 59 62 48 43 45 54 54 54 53
67 71 70 75 72 69 69 66 68 75 80 85 85 88 87 91 92 87 98 98 96 94 98 94 74 81 65 79 85 89 89 66 74 78 92 86 76 63 66 58 62 51 49 54 57 47 43 41 41 43 41 38 36 36
65 72 73 75 69 69 70 64 66 73 77 83 86 91 95 88 94 93 98 97 94 85 93 97 87 73 54 84 83 76 77 82 79 78 88 90 75 67 68 62 58 49 49 64 63 46 47 42 41 36 42 42 38 38
62 72 75 70 70 71 69 69 66 74 78 83 86 79 87 91 91 96 100 88 82 82 82 87 69 76 67 59 62 64 64 73 81 83 80 71 65 67 72 66 53 44 43 42 45 36 36 60 66 60 64 65 65 69
64 73 75 71 69 68 68 69 72 79 81 85 86 83 84 94 94 96 90 74 72 78 78 80 71 59 53 71 74 69 74 79 74 83 85 74 67 79 82 64 48 48 41 39 38 39 49 56 73 68 64 63 64 64
68 75 76 68 68 68 68 71 80 82 87 88 87 85 94 88 84 87 73 77 80 75 73 90 82 68 60 77 83 84 81 83 84 83 79 75 72 76 75 59 54 46 47 49 46 44 49 74 68 66 63 60 64 70
70 73 75 70 68 69 73 84 86 87 87 86 86 92 96 97 98 83 71 77 82 76 93 85 85 86 71 83 85 84 87 93 89 94 81 75 78 73 56 54 50 48 45 65 72 73 73 65 63 62 67 72 73 76
70 71 73 69 69 69 88 90 89 88 88 90 89 99 100 97 78 76 77 73 77 89 93 83 83 82 81 90 94 92 94 95 94 82 78 82 75 63 58 53 54 51 50 70 80 84 81 74 69 70 70 76 78 79
67 68 72 68 67 78 88 88 88 89 86 99 100 100 96 80 84 83 90 90 89 79 90 92 84 91 79 85 95 93 97 93 90 81 80 87 86 70 71 79 75 66 56 59 62 63 64 67 72 73 72 74 80 82
65 70 67 67 69 77 87 91 91 96 98 94 90 83 87 87 92 80 88 91 88 53 90 81 80 76 74 77 80 91 85 85 71 83 92 90 79 63 69 82 78 78 80 79 76 75 77 74 76 78 79 78 77 78
70 70 67 68 72 90 93 92 89 92 90 92 90 95 91 93 95 68 96 98 97 87 81 74 71 64 65 75 86 82 83 89 77 88 82 86 68 63 70 83 84 82 80 74 71 71 75 78 78 78 72 74 77 82
71 72 68 67 84 95 93 89 89 92 94 97 94 100 84 94 83 77 75 82 78 77 62 68 82 84 77 74 85 73 78 83 90 89 77 92 68 60 64 77 83 84 85 85 82 77 69 68 68 68 74 75 79 80
69 67 68 69 75 92 92 91 91 96 99 98 92 89 92 74 77 81 80 81 77 63 71 80 84 83 92 82 85 74 76 82 77 83 90 87 66 64 65 72 75 80 86 88 87 87 82 76 74 73 74 76 78 83
69 76 84 75 73 85 91 93 96 97 100 98 95 92 86 82 88 83 83 74 78 79 78 81 86 88 89 87 82 70 65 74 75 88 80 76 68 65 69 72 74 76 77 80 81 81 79 81 81 74 80 80 84 87
77 96 80 85 88 86 90 98 100 100 100 95 95 89 86 80 79 83 83 74 63 64 89 90 84 67 89 92 79 92 86 83 74 71 79 73 64 65 71 72 76 78 80 83 83 83 81 79 87 80 83 72 79 78
96 94 96 91 91 95 100 99 100 100 98 97 95 90 89 87 88 84 82 75 73 87 79 77 86 79 89 78 92 90 92 82 77 70 69 74 74 71 70 71 72 79 83 84 85 86 83 79 81 81 79 77 80 82
98 98 96 93 90 98 100 100 100 98 99 95 91 90 85 85 83 80 78 80 80 82 83 87 77 80 79 83 89 85 87 86 82 83 83 73 72 73 72 74 78 81 82 82 81 85 86 77 81 84 83 84 83 84
97 96 95 92 89 98 98 99 94 97 98 95 88 86 87 86 86 86 85 80 75 77 81 84 80 80 83 80 84 84 86 85 84 81 81 83 80 76 77 79 84 82 85 84 86 92 91 91 91 92 93 90 90 87
96 95 94 94 95 94 94 96 98 98 98 97 98 92 88 82 82 81 77 80 82 78 90 86 85 83 83 85 88 85 85 86 86 84 80 82 83 85 84 83 82 95 94 92 92 88 95 93 86 91 93 91 91 92
100 90 100 92 97 94 98 97 96 97 97 99 96 94 95 93 90 84 81 83 82 82 85 86 83 79 79 75 77 82 78 77 81 87 91 91 88 83 83 84 88 88 91 90 92 90 88 88 93 93 94 92 91 91
97 94 99 100 94 96 99 98 96 97 98 99 98 96 93 91 86 79 90 84 82 85 84 82 75 74 74 73 74 76 78 81 88 88 86 88 88 89 92 89 92 89 87 84 88 89 90 87 92 95 92 93 94 93
95 99 99 98 89 98 98 98 96 97 97 98 94 92 89 86 83 90 86 92 81 82 82 75 80 82 85 82 87 84 82 86 87 88 89 91 91 84 91 89 90 90 87 81 83 87 90 91 93 93 94 94 94 97
89 98 93 100 96 94 95 97 92 91 100 98 84 87 87 90 90 91 83 84 82 82 80 80 83 86 85 85 86 84 79 86 87 87 82 91 90 93 91 92 91 90 92 95 92 92 92 93 95 93 92 95 94 92
95 96 86 90 97 92 94 98 95 95 95 90 86 90 92 93 90 86 85 91 94 80 92 91 88 80 83 90 94 86 82 86 90 93 86 90 93 93 92 91 89 84 93 92 92 93 91 92 95 95 95 95 95 98
98 97 90 85 84 84 92 89 82 87 92 88 93 91 92 91 92 83 82 81 77 77 83 87 85 87 87 87 88 91 93 94 94 93 92 93 94 94 95 95 94 91 97 96 95 95 98 98 98 98 98 97 98 97
83 85 91 91 90 79 92 93 92 88 90 88 87 86 84 84 80 84 87 82 83 83 82 82 84 91 93 95 98 98 97 98 95 93 93 93 94 95 93 96 97 98 99 99 99 99 99 98 98 98 99 98 98 98
91 91 77 90 93 94 94 89 89 91 90 88 88 93 89 83 89 91 77 82 88 82 76 86 98 98 96 94 97 96 93 93 94 97 92 88 87 91 99 96 92 93 97 97 97 99 99 99 98 98 98 98 97 97
89 87 91 95 91 97 98 95 96 95 98 91 92 89 88 93 95 91 86 82 79 95 99 96 96 97 96 98 92 93 96 96 96 98 98 96 95 94 96 97 98 97 98 98 98 97 95 98 97 98 98 97 96 97
90 90 94 96 99 90 97 97 99 96 100 98 100 94 94 98 96 97 97 97 96 98 100 98 93 91 95 97 98 98 97 96 98 98 99 99 98 97 98 99 98 98 98 98 98 99 98 98 98 98 98 98 98 98
97 99 96 99 96 94 96 99 100 100 100 100 100 98 96 97 99 94 96 97 95 96 92 95 95 94 96 97 98 98 99 99 99 99 99 98 98 98 98 98 98 98 98 98 98 98 98 98 98 97 99 100 100 98
91 92 97 100 100 99 97 99 99 99 96 100 100 97 94 96 98 92 96 97 96 99 99 98 98 98 98 98 99 99 99 99 99 98 98 98 98 98 98 98 98 98 97 97 97 97 97 96 98 99 100 100 99 98
Wind_Speed
23 22 22 20 19 20 22 22 22 22 17 17 12 14 14 14 16 9 2 3 1 2 3 1 3 4 4 2 3 2 5 2 2 3 4 4 3 5 3 5 6 7 6 4 2 4 5 1 2 7 6 5 8 6
22 22 20 21 18 19 21 22 22 21 19 18 16 13 12 14 16 11 2 3 2 2 2 2 1 2 2 3 3 4 7 2 3 4 1 4 3 1 4 4 4 3 4 6 4 5 2 4 4 5 4 7 4 6
21 22 21 21 18 18 20 21 21 20 20 18 16 13 13 12 19 11 3 4 1 1 1 2 3 6 2 1 3 2 1 3 3 2 4 3 6 1 3 2 4 2 2 4 5 4 4 5 6 7 7 8 7 7
21 21 21 21 17 18 19 20 21 20 20 20 17 10 9 11 20 9 3 3 1 2 2 2 3 4 12 5 3 3 4 3 5 2 2 3 4 1 2 3 4 1 3 5 5 4 4 9 6 6 8 8 9 6
20 21 22 18 17 17 19 20 20 19 19 19 16 7 9 7 21 6 3 1 1 2 3 2 1 6 5 4 7 5 2 4 4 3 4 2 2 4 2 3 2 2 4 4 4 4 5 2 3 5 9 7 7 7
20 21 20 19 18 16 19 19 20 20 19 19 11 6 7 7 19 6 2 4 4 3 3 2 3 3 6 1 4 2 2 3 3 3 1 2 3 3 4 2 3 2 5 3 5 3 4 7 6 4 8 7 7 8
20 20 19 15 15 18 20 21 21 21 20 19 14 11 14 15 8 3 4 2 10 4 2 3 1 2 4 3 4 4 5 3 4 3 3 2 3 4 3 3 4 3 4 4 4 5 4 1 4 4 6 5 6 6
18 19 17 17 18 19 21 22 22 22 22 17 16 16 14 18 5 4 2 4 5 3 3 4 1 2 2 2 2 3 3 4 6 2 2 3 3 3 2 4 4 3 3 1 5 6 5 8 6 5 4 4 6 6
17 17 18 18 18 19 20 23 26 23 14 16 16 23 7 2 2 4 2 6 2 4 4 3 5 3 1 2 2 4 3 4 2 3 1 3 1 1 3 2 2 2 3 5 5 7 8 7 7 6 5 4 4 1
18 17 18 17 18 17 22 26 19 13 25 19 12 3 3 4 2 7 5 3 4 4 3 3 2 3 4 2 2 2 2 2 3 1 0 3 1 3 5 6 6 6 4 8 6 4 4 5 7 6 6 5 5 4
17 18 17 16 17 17 21 23 9 24 13 3 3 2 2 9 3 3 1 3 2 2 1 3 3 4 1 4 3 1 3 0 3 3 3 2 2 2 4 3 3 4 6 9 6 4 8 8 8 7 6 5 5 5
16 17 14 16 17 20 18 9 27 5 2 4 5 6 3 3 3 5 2 1 3 5 2 5 4 4 1 3 4 3 4 3 3 1 4 1 4 1 2 2 3 5 7 7 5 7 6 5 5 4 3 4 5 6
14 14 14 16 17 25 26 22 14 6 5 3 5 4 3 2 5 7 7 3 2 4 5 4 4 3 3 4 4 4 5 1 2 5 2 5 3 2 3 2 0 2 3 5 5 5 6 7 7 6 6 7 6 6
17 13 14 14 12 14 32 21 14 5 4 3 3 4 4 3 5 5 5 6 4 5 10 6 4 4 2 4 2 5 0 4 4 2 4 4 4 3 2 2 3 5 6 6 7 6 7 8 7 7 7 6 5 6
12 13 15 13 8 7 6 15 10 2 2 3 2 3 5 3 1 3 3 4 2 9 7 5 5 4 3 5 2 4 3 1 4 5 4 4 5 3 3 2 4 5 6 7 7 7 9 9 8 8 7 7 7 7
12 13 6 10 10 8 13 4 4 3 3 2 2 1 1 2 3 2 2 8 1 5 4 5 4 4 2 4 3 3 6 6 4 4 4 2 3 3 4 5 6 6 6 7 6 7 8 7 9 11 5 6 7 7
2 4 12 22 13 17 17 2 3 2 1 1 2 0 1 1 3 2 3 5 5 5 4 4 5 2 3 3 3 3 6 5 5 4 4 4 4 4 4 5 6 6 7 7 7 8 9 9 5 5 7 9 8 7
3 4 9 16 15 13 2 2 1 2 2 1 1 3 1 1 5 4 3 2 5 4 4 4 5 3 5 6 4 5 4 3 2 2 2 3 4 5 4 6 6 6 6 7 7 7 7 7 7 7 7 8 6 7
5 6 8 6 5 4 3 1 2 2 0 1 3 2 2 3 3 5 5 4 4 4 6 3 4 3 4 4 4 2 2 3 3 3 3 4 5 6 6 6 6 6 7 6 6 5 5 7 6 5 5 5 8 8
17 14 15 8 2 2 3 2 0 3 2 2 1 3 3 3 2 4 4 3 4 3 3 2 3 3 4 3 4 3 3 4 3 1 4 4 5 6 7 6 5 5 5 6 6 5 5 5 4 5 6 6 6 8
7 11 10 2 3 3 3 2 3 2 2 4 3 2 2 3 4 4 3 1 4 2 2 3 2 2 3 2 2 2 3 4 5 5 5 5 4 4 5 5 5 2 3 4 5 7 5 6 7 6 5 6 6 8
2 8 3 3 3 3 4 3 2 2 3 1 3 3 3 3 2 2 1 4 2 3 4 4 3 3 3 4 5 6 6 6 6 4 5 3 4 4 5 5 2 5 5 6 5 7 7 7 5 6 5 8 7 7
4 3 3 3 5 5 2 2 3 2 3 1 1 3 3 2 1 1 3 1 3 3 4 4 4 5 5 5 3 5 5 7 5 5 5 5 5 5 5 7 5 7 7 8 7 7 7 8 6 6 6 6 6 7
3 4 3 2 2 2 1 1 1 2 2 2 3 3 2 2 1 4 1 3 4 2 3 4 3 1 1 2 3 4 6 3 4 4 5 4 5 6 6 7 6 6 8 8 7 7 7 8 8 6 6 7 7 6
4 3 4 3 2 5 4 3 3 4 2 1 4 2 1 2 3 1 3 4 3 3 3 2 2 4 4 3 4 5 4 4 4 5 6 5 5 5 6 6 7 8 4 5 7 8 9 6 5 6 8 7 10 12
4 3 3 4 1 4 3 3 3 4 3 2 1 1 2 3 3 4 4 3 2 2 2 3 3 1 2 4 3 3 4 1 2 4 6 4 5 5 7 8 9 8 4 5 6 6 7 5 6 8 11 12 13 13
2 3 2 1 1 3 4 3 2 4 3 4 3 2 3 2 5 5 3 3 2 2 1 2 3 2 2 4 3 3 3 3 5 5 7 7 6 5 5 7 9 6 2 4 5 6 8 9 10 11 12 11 10 11
3 3 5 1 3 2 4 2 3 4 4 2 4 2 7 7 5 4 4 2 2 2 3 2 3 3 2 2 3 4 4 3 5 6 5 4 4 4 5 3 4 7 6 7 7 7 8 9 11 10 10 10 9 8
1 1 4 4 3 3 1 3 3 2 1 3 5 3 4 3 3 3 2 1 1 2 3 4 3 2 2 3 3 4 4 4 7 12 15 12 10 6 2 7 8 7 7 9 11 8 7 8 8 7 7 7 8 8
1 1 5 2 4 1 1 0 1 1 2 0 1 2 3 3 3 2 2 3 2 2 1 1 3 3 4 4 8 5 3 3 3 6 7 8 8 8 7 7 6 6 5 6 6 6 7 4 5 3 3 4 5 6
1 3 4 3 2 1 1 2 2 2 3 3 3 3 2 4 4 2 3 3 3 3 3 3 5 5 6 6 6 7 7 3 2 6 7 5 6 6 6 5 4 4 4 4 4 4 5 4 3 3 4 6 7 5
3 3 4 3 1 1 4 3 2 3 4 4 4 2 4 4 4 4 1 1 3 3 3 3 6 8 5 5 5 5 9 6 4 3 5 4 4 5 4 4 4 3 4 4 4 4 4 5 4 5 4 6 7 7
2 4 3 3 2 1 2 2 3 3 4 3 3 0 1 1 5 4 2 1 1 2 3 4 6 6 8 9 7 5 3 3 4 4 4 4 5 5 4 3 3 3 4 4 5 5 6 7 6 7 7 7 7 7
Wind_Direction
295 298 303 295 304 311 315 315 318 321 319 320 284 257 258 227 226 169 139 183 188 193 258 328 22 326 307 34 153 188 66 277 34 94 137 166 165 198 116 163 172 152 151 172 98 68 248 188 255 162 165 90 136 146
293 295 300 295 299 306 311 314 318 322 324 315 311 257 247 221 185 163 135 163 196 149 265 315 268 109 12 328 324 334 154 214 232 110 166 117 123 87 140 172 5 88 168 170 164 187 315 331 111 83 91 115 146 131
292 291 297 293 292 300 306 307 312 319 320 317 306 288 235 224 211 160 136 138 147 173 242 354 357 326 305 2 293 265 303 143 314 177 168 133 104 143 129 118 117 39 36 88 100 22 45 37 45 60 80 93 85 83
293 289 292 294 287 295 299 302 308 313 312 316 309 291 218 200 171 150 147 154 204 115 126 53 350 341 294 356 355 222 303 313 91 4 63 92 110 356 119 139 112 208 31 104 74 105 82 31 40 79 81 87 90 90
291 289 294 287 286 290 295 300 301 304 305 310 300 258 228 277 176 117 80 35 286 137 158 127 136 309 326 339 17 28 304 27 51 34 30 66 73 84 20 65 66 355 146 141 164 132 118 144 51 55 66 49 44 61
287 288 290 280 285 287 292 295 297 296 295 302 272 297 283 248 132 88 22 259 201 184 99 102 172 197 317 58 113 355 58 92 90 71 63 61 7 96 90 102 287 1 67 72 144 136 112 106 77 66 90 81 79 78
284 288 288 283 285 286 292 295 293 290 292 287 250 263 279 168 130 149 199 228 173 118 136 80 34 326 149 356 351 11 23 45 74 86 38 51 23 64 75 133 221 143 86 80 112 112 97 232 126 84 92 85 78 76
283 290 286 283 284 288 293 295 292 293 287 267 243 283 149 129 95 309 256 182 134 135 80 108 299 28 16 56 34 5 36 20 22 91 19 50 10 51 113 253 306 330 3 146 219 199 149 121 112 106 90 103 80 58
280 284 285 279 286 293 299 294 295 281 254 249 283 142 101 113 182 248 124 117 79 137 133 112 140 191 20 80 74 33 48 51 311 75 36 88 328 110 220 244 299 309 91 132 79 97 115 127 147 145 125 94 91 32
274 284 275 281 290 300 302 301 279 261 260 144 101 90 133 200 185 105 10 21 4 340 53 106 142 144 109 63 33 75 20 113 78 293 340 66 319 274 280 251 255 262 244 148 126 146 151 169 174 174 177 175 186 205
271 288 285 289 296 299 299 304 242 130 92 54 134 124 92 128 78 39 104 107 318 341 190 154 144 134 271 117 150 161 162 144 79 317 84 57 322 254 341 44 356 289 212 200 199 180 179 173 179 183 185 189 210 235
278 289 289 296 298 298 298 269 140 130 177 203 108 102 85 70 61 103 175 251 196 199 184 125 159 145 78 93 91 341 93 38 90 14 64 26 255 179 329 7 20 113 121 127 145 149 165 200 203 200 210 249 253 256
288 287 291 301 314 307 282 176 159 217 176 35 65 98 116 314 67 155 187 225 159 181 162 141 92 109 65 55 65 67 67 109 99 46 213 224 251 255 244 216 288 317 183 164 196 214 190 199 206 205 230 240 256 271
290 281 290 299 319 342 117 148 156 137 45 74 112 120 160 197 223 193 171 165 193 131 130 108 74 88 71 61 114 77 80 81 46 60 243 250 233 249 248 181 175 222 232 248 250 258 241 229 236 240 235 254 252 265
286 289 288 286 291 274 190 134 66 65 102 94 104 174 204 233 231 174 158 95 107 131 113 90 60 81 24 85 34 109 55 120 186 219 229 230 224 242 282 278 254 250 241 241 234 231 240 237 238 252 239 232 228 242
292 305 263 260 220 197 203 176 20 17 55 96 200 109 240 78 9 83 89 121 101 121 89 59 95 69 47 118 80 179 153 198 232 212 221 201 226 242 250 260 263 263 256 252 248 238 246 246 233 235 255 230 232 225
299 249 313 290 239 182 166 56 27 33 86 301 301 182 182 150 161 158 130 137 149 89 109 105 85 141 94 63 167 180 199 210 199 217 205 207 232 266 273 284 283 282 277 265 256 255 245 248 223 207 240 249 234 239
243 293 333 119 131 103 32 43 95 202 180 270 27 302 204 140 125 107 112 70 90 94 104 156 128 121 154 169 229 232 224 234 209 203 213 244 240 247 245 265 277 271 272 277 271 268 266 244 218 228 236 262 272 264
241 243 269 241 98 109 103 186 243 115 167 311 300 295 88 84 37 107 90 58 85 104 102 55 106 161 198 213 198 201 201 184 183 214 238 255 256 261 271 277 275 276 274 268 274 264 249 233 218 230 242 249 264 263
288 226 211 165 24 86 88 66 101 72 60 290 317 21 66 87 103 82 93 71 87 84 62 105 181 198 182 212 193 166 172 162 130 203 273 273 262 262 258 257 257 259 273 277 273 265 278 279 270 251 248 244 247 261
28 128 106 47 36 61 83 44 37 58 2 26 341 26 58 36 62 64 66 31 66 93 138 214 201 223 207 223 194 173 188 164 194 193 228 266 252 229 265 259 254 246 238 264 263 275 249 242 253 256 252 263 254 252
75 66 72 350 77 67 80 28 88 77 59 335 15 9 39 50 50 33 157 63 166 189 178 172 199 176 206 234 224 205 217 210 230 231 256 256 280 270 267 249 230 250 243 244 237 246 255 254 245 246 242 256 258 260
155 86 64 41 53 36 44 9 83 42 91 82 32 65 10 28 27 8 56 223 258 223 194 193 202 202 215 245 230 260 245 234 245 239 250 244 244 248 252 261 229 240 259 264 238 236 237 244 243 240 253 257 256 265
33 66 74 88 98 113 52 48 93 82 78 78 95 106 176 154 34 52 216 254 238 228 198 209 183 240 287 247 241 253 260 208 247 264 242 236 262 268 228 241 245 237 235 257 263 260 255 252 249 248 244 251 254 246
71 359 81 27 353 78 64 33 33 52 70 69 75 6 239 77 82 101 227 259 235 231 237 165 180 200 216 249 254 258 255 205 250 267 273 208 243 281 277 259 254 244 234 245 260 254 256 250 241 250 257 252 258 267
73 295 106 170 236 113 163 111 152 169 122 66 196 330 53 86 95 237 238 239 241 245 220 190 194 198 241 201 242 291 291 317 231 250 277 235 235 244 267 276 285 287 230 234 254 254 260 253 248 258 267 270 269 269
101 257 204 228 131 110 74 63 96 100 116 155 192 90 79 122 233 249 269 226 221 249 213 116 128 151 247 294 283 274 292 274 229 254 286 281 266 240 241 264 280 272 307 286 265 252 269 277 279 276 276 273 272 272
204 173 143 192 79 65 118 85 132 177 190 184 92 154 172 193 233 238 215 228 184 55 38 26 31 33 350 332 314 308 302 286 290 285 281 266 255 250 254 264 269 287 281 272 272 273 268 272 277 280 284 287 291 291
338 319 91 38 44 46 85 149 201 240 188 134 147 191 226 223 227 217 227 157 105 52 22 10 345 356 323 287 263 266 263 283 313 312 309 308 313 311 357 322 307 305 304 299 299 293 310 305 298 294 290 287 286 282
274 99 91 72 88 104 175 21 115 350 307 219 162 2 345 299 283 306 4 21 37 77 121 343 337 353 317 307 309 300 270 264 263 281 299 305 307 310 305 303 307 325 330 315 308 306 303 300 303 308 327 324 325 327
43 72 71 62 93 73 41 18 16 16 27 37 5 114 259 309 312 347 36 60 87 68 66 355 328 324 314 307 312 309 306 287 283 290 286 301 312 310 311 326 312 310 314 322 322 317 319 320 333 353 10 2 351 0
32 61 115 99 120 43 29 55 24 42 355 38 351 358 350 23 311 298 355 46 9 12 348 328 314 316 309 291 282 273 269 288 303 320 324 306 301 311 314 315 320 330 339 342 344 349 356 15 20 34 18 12 8 16
84 54 62 80 39 330 314 71 38 340 19 23 329 276 326 246 253 265 284 190 356 4 329 306 297 295 291 290 286 295 322 297 316 334 333 335 342 342 332 330 340 353 10 15 18 19 35 45 39 32 28 29 28 31